FW4518 Weather Reports


Display with metric or nautical units.
time (UTC)temp
F
wind
direction
speed
MPH
gust
MPH
rain 1hr
in
rain 24hr
in
rain mn
in
humidity
%
barometer
mb
20260901065711 57 0.0 0.0 0.00 0.00 0.00 58 1010.4
20260901064711 58 0.0 0.0 0.00 0.00 0.00 57 1010.6
20260901063731 58 0.0 0.0 0.00 0.00 0.00 57 1010.7
20260901062712 61 0.0 0.0 0.00 0.00 0.00 53 1010.8
20260901061711 63 0.0 0.0 0.00 0.00 0.00 50 1010.7
20260901060711 66 0.0 0.0 0.00 0.00 0.00 47 1010.6
20260901055732 66 12 4.0 7.0 0.00 0.00 0.00 46 1010.5
20260901054712 66 1 2.0 5.0 0.00 0.00 0.00 46 1010.6
20260901053712 67 16 2.0 7.0 0.00 0.00 0.00 46 1010.6
20260901052711 67 358 5.0 7.0 0.00 0.00 0.00 46 1010.6
20260901051711 67 322 6.0 9.0 0.00 0.00 0.00 46 1010.6
20260901050712 67 355 5.0 7.0 0.00 0.00 0.00 46 1010.5
20260901045711 68 1 4.0 7.0 0.00 0.00 0.00 45 1010.5
20260901044711 68 8 4.0 7.0 0.00 0.00 0.00 45 1010.4
20260901043712 68 352 4.0 7.0 0.00 0.00 0.00 45 1010.4
20260901042711 68 3 4.0 7.0 0.00 0.00 0.00 46 1010.4
20260901041712 68 19 7.0 10.0 0.00 0.00 0.00 45 1010.3
20260901040712 69 347 7.0 9.0 0.00 0.00 0.00 45 1010.1
20260901035712 69 14 6.0 11.0 0.00 0.00 0.00 45 1009.9
20260901034713 71 16 6.0 10.0 0.00 0.00 0.00 43 1009.8
20260901033711 72 3 6.0 11.0 0.00 0.00 0.00 42 1009.7
20260901032712 72 343 5.0 10.0 0.00 0.00 0.00 42 1009.6
20260901031712 73 358 6.0 10.0 0.00 0.00 0.00 42 1009.5
20260901030712 74 16 4.0 8.0 0.00 0.00 0.00 40 1009.3
20260901025714 74 358 6.0 10.0 0.00 0.00 0.00 40 1009.2
20260901024732 75 10 7.0 12.0 0.00 0.00 0.00 39 1009.1
20260901023712 76 6 8.0 13.0 0.00 0.00 0.00 38 1008.9
20260901022732 77 22 9.0 14.0 0.00 0.00 0.00 37 1008.8
20260901021712 78 13 7.0 12.0 0.00 0.00 0.00 37 1008.8
20260901020732 79 18 8.0 13.0 0.00 0.00 0.00 36 1008.5
20260901015712 79 17 9.0 13.0 0.00 0.00 0.00 36 1008.4
20260901014712 80 16 9.0 14.0 0.00 0.00 0.00 35 1008.4
20260901013712 81 341 7.0 14.0 0.00 0.00 0.00 34 1008.4
20260901012712 82 17 8.0 15.0 0.00 0.00 0.00 33 1008.4
20260901011712 82 10 11.0 18.0 0.00 0.00 0.00 32 1008.4
20260901010712 83 349 11.0 19.0 0.00 0.00 0.00 32 1008.3
20260901005732 83 351 9.0 15.0 0.00 0.00 0.00 32 1008.4
20260901004712 83 17 8.0 12.0 0.00 0.00 0.00 32 1008.5
20260901003712 83 1 8.0 14.0 0.00 0.00 0.00 31 1008.5
20260901002712 83 22 8.0 15.0 0.00 0.00 0.00 30 1008.5
20260901001712 84 16 9.0 13.0 0.00 0.00 0.00 31 1008.5
20260901000732 84 3 8.0 14.0 0.00 0.00 0.00 30 1008.5
20260831235712 84 15 9.0 14.0 0.00 0.00 0.00 30 1008.6
20260831234712 84 56 8.0 12.0 0.00 0.00 0.00 30 1008.6
20260831233732 85 331 5.0 11.0 0.00 0.00 0.00 30 1008.7
20260831232712 84 14 6.0 13.0 0.00 0.00 0.00 30 1008.9
20260831231712 84 7 7.0 12.0 0.00 0.00 0.00 30 1009.0
20260831230712 84 356 4.0 10.0 0.00 0.00 0.00 30 1009.1
20260831225733 84 21 7.0 14.0 0.00 0.00 0.00 31 1009.3
20260831224712 83 7 8.0 13.0 0.00 0.00 0.00 31 1009.5
20260831223712 83 20 8.0 13.0 0.00 0.00 0.00 32 1009.6
20260831222712 83 25 7.0 14.0 0.00 0.00 0.00 31 1009.7
20260831221715 82 15 8.0 12.0 0.00 0.00 0.00 32 1009.9
20260831220713 82 19 7.0 13.0 0.00 0.00 0.00 32 1010.0
20260831215712 83 18 7.0 11.0 0.00 0.00 0.00 32 1010.3
20260831214732 82 18 5.0 11.0 0.00 0.00 0.00 31 1010.4
20260831213732 82 1 7.0 11.0 0.00 0.00 0.00 32 1010.6
20260831212713 81 21 7.0 12.0 0.00 0.00 0.00 32 1010.7
20260831211712 81 8 7.0 13.0 0.00 0.00 0.00 33 1010.8
20260831210712 81 33 6.0 10.0 0.00 0.00 0.00 33 1010.9
20260831205712 80 1 7.0 10.0 0.00 0.00 0.00 34 1011.1
20260831204712 79 5 5.0 10.0 0.00 0.00 0.00 34 1011.4
20260831203716 78 24 7.0 11.0 0.00 0.00 0.00 35 1011.5
20260831202712 78 346 6.0 11.0 0.00 0.00 0.00 35 1011.7
20260831201712 77 26 6.0 12.0 0.00 0.00 0.00 36 1012.0
20260831200713 77 345 5.0 9.0 0.00 0.00 0.00 37 1012.1
20260831195732 75 5 6.0 10.0 0.00 0.00 0.00 38 1012.3
20260831194732 76 11 5.0 10.0 0.00 0.00 0.00 39 1012.5
20260831193713 75 7 5.0 9.0 0.00 0.00 0.00 39 1012.6
20260831192733 74 359 6.0 10.0 0.00 0.00 0.00 41 1012.8
20260831191712 74 5 5.0 10.0 0.00 0.00 0.00 42 1013.0
20260831190713 73 356 3.0 8.0 0.00 0.00 0.00 42 1013.2
20260831185713 72 6 3.0 8.0 0.00 0.00 0.00 43 1013.4
20260831184713 73 8 2.0 7.0 0.00 0.00 0.00 42 1013.6
20260831183733 72 4 4.0 9.0 0.00 0.00 0.00 42 1013.8
20260831182712 72 321 2.0 7.0 0.00 0.00 0.00 41 1013.9
20260831181733 71 19 2.0 6.0 0.00 0.00 0.00 41 1014.0
20260831180712 69 10 4.0 7.0 0.00 0.00 0.00 43 1014.2
20260831175713 68 6 2.0 5.0 0.00 0.00 0.00 44 1014.3
20260831174712 68 312 1.0 4.0 0.00 0.00 0.00 45 1014.5
20260831173712 68 9 2.0 4.0 0.00 0.00 0.00 44 1014.6
20260831172713 65 208 2.0 3.0 0.00 0.00 0.00 48 1014.8
20260831171713 67 0.0 1.0 0.00 0.00 0.00 46 1014.8
20260831170713 65 266 1.0 3.0 0.00 0.00 0.00 47 1014.9
20260831165713 64 217 2.0 3.0 0.00 0.00 0.00 48 1015.0
20260831164713 62 97 2.0 3.0 0.00 0.00 0.00 48 1015.1
20260831163713 61 197 1.0 3.0 0.00 0.00 0.00 49 1015.2
20260831162713 59 206 2.0 4.0 0.00 0.00 0.00 50 1015.3
20260831161713 57 178 1.0 4.0 0.00 0.00 0.00 53 1015.5
20260831160713 56 177 2.0 4.0 0.00 0.00 0.00 53 1015.6
20260831155713 56 185 3.0 5.0 0.00 0.00 0.00 54 1015.8
20260831154713 55 157 2.0 5.0 0.00 0.00 0.00 53 1015.7
20260831153713 54 150 3.0 6.0 0.00 0.00 0.00 55 1015.8
20260831152713 53 194 3.0 5.0 0.00 0.00 0.00 58 1015.7
20260831151713 51 146 3.0 6.0 0.00 0.00 0.00 61 1015.8
20260831150713 50 152 3.0 6.0 0.00 0.00 0.00 63 1015.8
20260831145713 49 126 4.0 6.0 0.00 0.00 0.00 63 1015.8
20260831144713 45 186 0.0 2.0 0.00 0.00 0.00 70 1015.9
20260831143713 44 0.0 0.0 0.00 0.00 0.00 70 1015.8
20260831142853 43 0.0 0.0 0.00 0.00 0.00 72 1015.8
20260831141713 42 0.0 0.0 0.00 0.00 0.00 73 1015.8
20260831140734 42 0.0 0.0 0.00 0.00 0.00 73 1015.8
20260831135713 41 168 0.0 3.0 0.00 0.00 0.00 76 1015.9
20260831134713 38 0.0 0.0 0.00 0.00 0.00 81 1015.9
20260831133733 38 0.0 0.0 0.00 0.00 0.00 82 1015.9
20260831132713 38 0.0 0.0 0.00 0.00 0.00 84 1015.9
20260831131713 38 0.0 0.0 0.00 0.00 0.00 83 1016.0
20260831130713 38 0.0 0.0 0.00 0.00 0.00 85 1015.9
20260831125713 38 0.0 0.0 0.00 0.00 0.00 84 1016.0
20260831124733 39 0.0 0.0 0.00 0.00 0.00 81 1016.0
20260831123713 39 0.0 0.0 0.00 0.00 0.00 82 1016.1
20260831122713 39 0.0 0.0 0.00 0.00 0.00 83 1016.1
20260831121713 40 0.0 0.0 0.00 0.00 0.00 79 1016.1
20260831120713 40 0.0 0.0 0.00 0.00 0.00 79 1016.2
20260831115754 41 0.0 0.0 0.00 0.00 0.00 78 1016.2
20260831114713 43 0.0 0.0 0.00 0.00 0.00 73 1016.0
20260831113713 44 0.0 0.0 0.00 0.00 0.00 72 1016.1
20260831112713 45 0.0 0.0 0.00 0.00 0.00 70 1016.0
20260831111713 45 216 1.0 4.0 0.00 0.00 0.00 71 1016.1
20260831110733 44 201 1.0 3.0 0.00 0.00 0.00 73 1016.3
20260831105713 44 0.0 0.0 0.00 0.00 0.00 74 1016.3
20260831104733 46 202 1.0 3.0 0.00 0.00 0.00 71 1016.2
20260831103733 46 189 0.0 2.0 0.00 0.00 0.00 72 1016.2
20260831102713 43 0.0 1.0 0.00 0.00 0.00 77 1016.2
20260831101733 43 0.0 0.0 0.00 0.00 0.00 74 1016.2
20260831100713 43 0.0 0.0 0.00 0.00 0.00 73 1016.2
20260831095713 44 0.0 0.0 0.00 0.00 0.00 74 1016.2
20260831094713 44 0.0 0.0 0.00 0.00 0.00 72 1016.2
20260831093713 45 0.0 0.0 0.00 0.00 0.00 68 1016.3
20260831092713 46 0.0 0.0 0.00 0.00 0.00 69 1016.4
20260831091713 45 0.0 0.0 0.00 0.00 0.00 70 1016.5
20260831090713 46 0.0 0.0 0.00 0.00 0.00 72 1016.6
20260831085713 45 0.0 0.0 0.00 0.00 0.00 71 1016.5
20260831084733 46 0.0 0.0 0.00 0.00 0.00 70 1016.5
20260831083733 47 0.0 0.0 0.00 0.00 0.00 68 1016.6
20260831082713 48 0.0 0.0 0.00 0.00 0.00 67 1016.5
20260831081734 48 0.0 0.0 0.00 0.00 0.00 67 1016.6
20260831080713 48 0.0 0.0 0.00 0.00 0.00 71 1016.6
20260831075713 49 0.0 0.0 0.00 0.00 0.00 71 1016.6
20260831074713 49 0.0 0.0 0.00 0.00 0.00 69 1016.6
20260831073713 50 0.0 0.0 0.00 0.00 0.00 67 1016.6
20260831072713 50 0.0 0.0 0.00 0.00 0.00 65 1016.5
20260831071715 51 0.0 0.0 0.00 0.00 0.00 64 1016.6
20260831070713 52 0.0 0.0 0.00 0.00 0.00 64 1016.7